Regional Weather Roundup
Issued by NWS

Home | Current Version | Previous Version | Graphics & Text | Print | Product List | Glossary On
Versions: 1 2 3 4 5 6 7 8 9 10 11 12 13 14 15 16 17 18 19 20 21 22 23 24 25 26 27
000
ASUS45 KBOI 281810
RWRID

IDAHO REGIONAL WEATHER ROUNDUP
NATIONAL WEATHER SERVICE BOISE ID
1200 PM MDT TUE MAR 28 2017

NOTE: "FAIR" INDICATES FEW OR NO CLOUDS BELOW 12000 FEET
WITH NO SIGNIFICANT WEATHER AND/OR OBSTRUCTIONS TO VISIBILITY

IDZ012-014-281900-
SOUTHWEST IDAHO


CITY           SKY/WX    TMP DP  RH WIND       PRES   REMARKS
BOISE          SUNNY     48  32  53 NW12      30.29R
CALDWELL       SUNNY     49  34  56 W12       30.31R
MOUNTAIN HOME  SUNNY     50  32  48 NW18      30.27R
$$

IDZ016-017-281900-
SOUTHCENTRAL IDAHO


CITY           SKY/WX    TMP DP  RH WIND       PRES   REMARKS
BURLEY         SUNNY     45  29  53 W14G24    30.22R
JEROME         SUNNY     45  30  55 W16       30.24R
TWIN FALLS     MOSUNNY   45  28  51 W21G29    30.24R
$$

IDZ019>023-281900-
SOUTHEAST IDAHO


CITY           SKY/WX    TMP DP  RH WIND       PRES   REMARKS
IDAHO FALLS    MOSUNNY   43  28  55 VRB3      30.18S
POCATELLO      MOSUNNY   42  30  62 W9        30.22R
REXBURG        MOSUNNY   41  32  70 SW6       30.17R
$$

IDZ006-010-011-018-031-032-281900-
CENTRAL IDAHO MOUNTAINS


CITY           SKY/WX    TMP DP  RH WIND       PRES   REMARKS
MCCALL         SUNNY     35  24  64 S5        30.22S WCI  31
HAILEY         MOSUNNY   43  19  39 SW6       30.21R
STANLEY          N/A     30  21  69 N3        30.22
SALMON         MOSUNNY   45  25  45 NE6       30.21R
CHALLIS        SUNNY     42  20  41 VRB3      30.20S
$$

IDZ002-004-006-007-026-281900-
NORTHERN IDAHO


CITY           SKY/WX    TMP DP  RH WIND       PRES   REMARKS
LEWISTON       CLOUDY    48  37  65 N5        30.30S
LOWELL           N/A     45  38  76 CALM      30.33S
COEUR D`ALENE  LGT RAIN  42  36  79 S12       30.24F
MULLAN PASS    LGT SNOW  28  27  96 SW7       30.16S FOG     WCI  21
$$




USA.gov is the U.S. government's official web portal to all federal, state and local government web resources and services.